Tracking 18945 objects as of 19-Jan-2018
HD Live streaming from Space Station
objects crossing your sky now

FENGYUN 1C DEB

Track FENGYUN 1C DEB now!
10-day predictions


NORAD ID: 35108
Int'l Code: 1999-025DKL
Perigee: 786.5 km
Apogee: 986.4 km
Inclination: 98.9 °
Period: 102.5 minutes
Semi major axis: 7257 km
RCS: 0.0094 m2 (small)
Launch date: May 10, 1999
Source: People's Republic of China (PRC)
Launch site: Taiyaun Space Center, China (TSC)

Note: This is SATELLITE DEBRIS
aabbcc
Your satellite tracking list
Your tracking list is empty




NASA's NSSDC Master Catalog

Two Line Element Set (TLE):
1 35108U 99025DKL 18006.86295573 +.00000199 +00000-0 +14148-3 0  9992
2 35108 098.9476 041.0822 0137728 255.2002 103.3872 14.04195047485616
Source of the keplerian elements: AFSPC